Location: Unspecified
(0.0000°N, 0.0000°E)
Time: 08:33:47
(UTC+00:00)

deb r/b Ablestar - Pass Details

Date: 15 February 2026
Orbit: 902 x 2195 km, 67.6° (Epoch: 14 March)

Event Time Altitude Azimuth Distance (km) Brightness Sun altitude
Rises 19:40:44 0° 199° (SSW) 4,873 ? -21.1°
Reaches altitude 10° 19:44:08 10° 199° (SSW) 3,695 ? -22.0°
Maximum altitude 19:52:55 88° 287° (WNW) 1,232 ? -24.1°
Enters shadow 19:57:06 27° 17° (NNE) 1,990 ? -25.1°
